Time,TemperatureF,DewpointF,PressureIn,WindDirection,WindDirectionDegrees,WindSpeedMPH,WindSpeedGustMPH,Humidity,HourlyPrecipIn,Conditions,Clouds,dailyrainin,SoftwareType,DateUTC
2013-12-05 00:02:00,36.4,33.7,29.64,South,180,5.9,14.3,90,0.00,,,0.00,WUHU216HW,2013-12-05 06:02:00,
2013-12-05 00:07:00,36.4,33.4,29.64,SSW,203,11.6,11.6,89,0.00,,,0.00,WUHU216HW,2013-12-05 06:07:00,
2013-12-05 00:12:00,36.0,33.0,29.64,North,0,7.9,11.6,89,0.00,,,0.00,WUHU216HW,2013-12-05 06:12:00,
2013-12-05 00:17:00,36.0,33.3,29.64,West,270,3.7,14.3,90,0.00,,,0.00,WUHU216HW,2013-12-05 06:17:00,
2013-12-05 00:22:00,35.8,33.1,29.64,WSW,248,6.2,14.3,90,0.00,,,0.00,WUHU216HW,2013-12-05 06:22:00,
2013-12-05 00:27:00,35.6,32.9,29.65,West,270,14.1,14.1,90,0.00,,,0.00,WUHU216HW,2013-12-05 06:27:00,
2013-12-05 00:33:00,35.5,32.8,29.65,South,180,7.2,14.1,90,0.00,,,0.00,WUHU216HW,2013-12-05 06:33:00,
2013-12-05 00:38:00,35.3,32.6,29.65,SW,225,10.1,11.6,90,0.00,,,0.00,WUHU216HW,2013-12-05 06:38:00,
2013-12-05 00:43:00,35.1,32.1,29.65,SW,225,10.6,14.5,89,0.00,,,0.00,WUHU216HW,2013-12-05 06:43:00,
2013-12-05 00:48:00,34.9,32.0,29.65,SE,135,11.1,14.5,89,0.00,,,0.00,WUHU216HW,2013-12-05 06:48:00,
2013-12-05 00:53:00,34.7,31.5,29.66,SSE,158,15.0,15.0,88,0.00,,,0.00,WUHU216HW,2013-12-05 06:53:00,
2013-12-05 00:59:00,34.6,31.6,29.65,SW,225,10.3,15.0,89,0.00,,,0.00,WUHU216HW,2013-12-05 06:59:00,
2013-12-05 01:04:00,34.4,31.2,29.66,SW,225,9.4,13.1,88,0.00,,,0.00,WUHU216HW,2013-12-05 07:04:00,
2013-12-05 01:09:00,34.2,31.0,29.66,WSW,248,7.6,13.1,88,0.00,,,0.00,WUHU216HW,2013-12-05 07:09:00,
2013-12-05 01:14:00,34.2,31.0,29.67,WSW,248,7.9,15.7,88,0.00,,,0.00,WUHU216HW,2013-12-05 07:14:00,
2013-12-05 01:19:00,34.0,30.8,29.67,SW,225,11.1,15.7,88,0.00,,,0.00,WUHU216HW,2013-12-05 07:19:00,
2013-12-05 01:25:00,33.8,30.6,29.68,WSW,248,9.4,14.3,88,0.00,,,0.00,WUHU216HW,2013-12-05 07:25:00,
2013-12-05 01:30:00,33.5,30.0,29.68,WSW,248,10.8,11.3,87,0.00,,,0.00,WUHU216HW,2013-12-05 07:30:00,
2013-12-05 01:36:00,33.3,29.5,29.68,WSW,248,12.8,15.7,86,0.00,,,0.00,WUHU216HW,2013-12-05 07:36:00,
2013-12-05 01:41:00,33.3,29.8,29.69,West,270,5.2,15.7,87,0.00,,,0.00,WUHU216HW,2013-12-05 07:41:00,
2013-12-05 01:48:00,33.1,29.9,29.70,SW,225,5.4,9.6,88,0.00,,,0.00,WUHU216HW,2013-12-05 07:48:00,
2013-12-05 01:56:00,33.1,29.9,29.71,WSW,248,9.1,9.1,88,0.00,,,0.00,WUHU216HW,2013-12-05 07:56:00,
2013-12-05 02:01:00,32.9,29.8,29.70,SW,225,7.9,9.1,88,0.00,,,0.00,WUHU216HW,2013-12-05 08:01:00,
2013-12-05 02:06:00,32.9,29.8,29.71,SW,225,7.4,11.1,88,0.00,,,0.00,WUHU216HW,2013-12-05 08:06:00,
2013-12-05 02:11:00,32.8,29.4,29.70,SE,135,7.6,12.5,87,0.00,,,0.00,WUHU216HW,2013-12-05 08:11:00,
2013-12-05 02:16:00,32.8,29.6,29.70,SW,225,9.1,12.5,88,0.00,,,0.00,WUHU216HW,2013-12-05 08:16:00,
2013-12-05 02:21:00,32.8,29.6,29.70,SSW,203,4.2,9.1,88,0.00,,,0.00,WUHU216HW,2013-12-05 08:21:00,
2013-12-05 02:26:00,32.6,29.4,29.70,South,180,6.9,10.8,88,0.00,,,0.00,WUHU216HW,2013-12-05 08:26:00,
2013-12-05 02:31:00,32.6,29.4,29.69,SSW,203,6.9,10.8,88,0.00,,,0.00,WUHU216HW,2013-12-05 08:31:00,
2013-12-05 02:36:00,32.4,29.3,29.70,WSW,248,18.5,18.5,88,0.00,,,0.00,WUHU216HW,2013-12-05 08:36:00,
2013-12-05 02:41:00,32.4,29.0,29.70,SSW,203,8.4,18.5,87,0.00,,,0.00,WUHU216HW,2013-12-05 08:41:00,
2013-12-05 02:46:00,32.2,28.5,29.69,WSW,248,8.4,13.5,86,0.00,,,0.00,WUHU216HW,2013-12-05 08:46:00,
2013-12-05 02:51:00,32.0,28.4,29.69,West,270,7.9,13.5,86,0.00,,,0.00,WUHU216HW,2013-12-05 08:51:00,
2013-12-05 02:57:00,32.0,28.6,29.69,West,270,8.9,10.6,87,0.00,,,0.00,WUHU216HW,2013-12-05 08:57:00,
2013-12-05 03:02:00,32.0,28.6,29.70,SSE,158,3.4,9.4,87,0.00,,,0.00,WUHU216HW,2013-12-05 09:02:00,
2013-12-05 03:08:00,32.0,28.6,29.70,SW,225,5.9,10.1,87,0.00,,,0.00,WUHU216HW,2013-12-05 09:08:00,
2013-12-05 03:13:00,32.0,29.0,29.72,SW,225,8.9,10.8,88,0.00,,,0.00,WUHU216HW,2013-12-05 09:13:00,
2013-12-05 03:19:00,32.0,29.0,29.72,SW,225,13.3,13.3,88,0.00,,,0.00,WUHU216HW,2013-12-05 09:19:00,
2013-12-05 03:24:00,32.0,29.0,29.74,SW,225,11.8,13.3,88,0.00,,,0.00,WUHU216HW,2013-12-05 09:24:00,
2013-12-05 03:30:00,32.0,28.4,29.74,SW,225,10.6,16.5,86,0.00,,,0.00,WUHU216HW,2013-12-05 09:30:00,
2013-12-05 03:36:00,31.9,27.9,29.75,SW,225,11.1,12.8,85,0.00,,,0.00,WUHU216HW,2013-12-05 09:36:00,
2013-12-05 03:41:00,31.7,27.7,29.75,SW,225,9.4,12.3,85,0.00,,,0.00,WUHU216HW,2013-12-05 09:41:00,
2013-12-05 03:46:00,31.5,27.5,29.76,SW,225,12.5,12.5,85,0.00,,,0.00,WUHU216HW,2013-12-05 09:46:00,
2013-12-05 03:52:00,31.3,27.1,29.76,SW,225,17.3,17.3,84,0.00,,,0.00,WUHU216HW,2013-12-05 09:52:00,
2013-12-05 03:58:00,31.1,27.2,29.76,SW,225,3.0,17.3,85,0.00,,,0.00,WUHU216HW,2013-12-05 09:58:00,
2013-12-05 04:03:00,31.0,27.0,29.76,SW,225,7.2,15.7,85,0.00,,,0.00,WUHU216HW,2013-12-05 10:03:00,
2013-12-05 04:08:00,31.0,27.0,29.76,SW,225,5.6,17.3,85,0.00,,,0.00,WUHU216HW,2013-12-05 10:08:00,
2013-12-05 04:14:00,31.0,27.3,29.76,SW,225,5.9,17.3,86,0.00,,,0.00,WUHU216HW,2013-12-05 10:14:00,
2013-12-05 04:19:00,31.0,27.3,29.76,SW,225,5.2,10.3,86,0.00,,,0.00,WUHU216HW,2013-12-05 10:19:00,
2013-12-05 04:24:00,30.8,27.1,29.76,SW,225,6.6,10.1,86,0.00,,,0.00,WUHU216HW,2013-12-05 10:24:00,
2013-12-05 04:29:00,30.6,26.9,29.76,SW,225,5.2,13.1,86,0.00,,,0.00,WUHU216HW,2013-12-05 10:29:00,
2013-12-05 04:35:00,30.6,26.9,29.77,SW,225,5.2,10.8,86,0.00,,,0.00,WUHU216HW,2013-12-05 10:35:00,
2013-12-05 04:40:00,30.6,26.9,29.77,SW,225,8.9,8.9,86,0.00,,,0.00,WUHU216HW,2013-12-05 10:40:00,
2013-12-05 04:47:00,30.6,26.9,29.78,SW,225,10.1,10.1,86,0.00,,,0.00,WUHU216HW,2013-12-05 10:47:00,
2013-12-05 04:52:00,30.2,26.3,29.78,SW,225,9.1,11.3,85,0.00,,,0.00,WUHU216HW,2013-12-05 10:52:00,
2013-12-05 04:58:00,30.1,25.6,29.79,SW,225,6.6,12.5,83,0.00,,,0.00,WUHU216HW,2013-12-05 10:58:00,
2013-12-05 05:03:00,29.9,25.7,29.79,SW,225,6.9,12.5,84,0.00,,,0.00,WUHU216HW,2013-12-05 11:03:00,
2013-12-05 05:08:00,29.9,25.7,29.80,SW,225,7.9,10.1,84,0.00,,,0.00,WUHU216HW,2013-12-05 11:08:00,
2013-12-05 05:14:00,29.7,25.5,29.80,SW,225,4.4,11.6,84,0.00,,,0.00,WUHU216HW,2013-12-05 11:14:00,
2013-12-05 05:19:00,29.7,25.5,29.80,SW,225,8.1,11.6,84,0.00,,,0.00,WUHU216HW,2013-12-05 11:19:00,
2013-12-05 05:25:00,29.5,25.6,29.80,SW,225,9.4,10.1,85,0.00,,,0.00,WUHU216HW,2013-12-05 11:25:00,
2013-12-05 05:31:00,29.3,25.4,29.81,SW,225,7.9,9.4,85,0.00,,,0.00,WUHU216HW,2013-12-05 11:31:00,
2013-12-05 05:36:00,29.2,25.2,29.81,SW,225,5.9,12.1,85,0.00,,,0.00,WUHU216HW,2013-12-05 11:36:00,
2013-12-05 05:41:00,29.0,25.0,29.81,SW,225,5.4,12.1,85,0.00,,,0.00,WUHU216HW,2013-12-05 11:41:00,
2013-12-05 05:47:00,28.8,24.6,29.81,SW,225,9.8,12.1,84,0.00,,,0.00,WUHU216HW,2013-12-05 11:47:00,
2013-12-05 05:52:00,28.4,24.0,29.82,SW,225,9.8,14.1,83,0.00,,,0.00,WUHU216HW,2013-12-05 11:52:00,
2013-12-05 05:57:00,28.3,24.0,29.82,SW,225,9.4,14.1,84,0.00,,,0.00,WUHU216HW,2013-12-05 11:57:00,
2013-12-05 06:02:00,28.1,23.6,29.82,SW,225,11.6,11.6,83,0.00,,,0.00,WUHU216HW,2013-12-05 12:02:00,
2013-12-05 06:07:00,27.9,23.4,29.83,SW,225,9.6,11.6,83,0.00,,,0.00,WUHU216HW,2013-12-05 12:07:00,
2013-12-05 06:12:00,27.7,23.5,29.82,SW,225,9.4,10.6,84,0.00,,,0.00,WUHU216HW,2013-12-05 12:12:00,
2013-12-05 06:18:00,27.4,22.2,29.83,SW,225,7.2,12.3,81,0.00,,,0.00,WUHU216HW,2013-12-05 12:18:00,
2013-12-05 06:23:00,27.0,21.9,29.84,SW,225,11.3,13.3,81,0.00,,,0.00,WUHU216HW,2013-12-05 12:23:00,
2013-12-05 06:29:00,26.6,21.8,29.84,SW,225,7.6,13.8,82,0.00,,,0.00,WUHU216HW,2013-12-05 12:29:00,
2013-12-05 06:35:00,26.3,21.5,29.85,SW,225,10.1,13.8,82,0.00,,,0.00,WUHU216HW,2013-12-05 12:35:00,
2013-12-05 06:40:00,26.3,21.5,29.85,SW,225,14.7,15.0,82,0.00,,,0.00,WUHU216HW,2013-12-05 12:40:00,
2013-12-05 06:47:00,26.1,21.1,29.85,SW,225,14.1,14.7,81,0.00,,,0.00,WUHU216HW,2013-12-05 12:47:00,
2013-12-05 06:52:00,25.7,20.7,29.86,SW,225,13.3,15.7,81,0.00,,,0.00,WUHU216HW,2013-12-05 12:52:00,
2013-12-05 06:57:00,25.4,20.7,29.87,SW,225,4.7,15.7,82,0.00,,,0.00,WUHU216HW,2013-12-05 12:57:00,
2013-12-05 07:05:00,24.8,19.9,29.87,SW,225,11.8,11.8,81,0.00,,,0.00,WUHU216HW,2013-12-05 13:05:00,
2013-12-05 07:10:00,24.7,20.0,29.87,SW,225,5.2,11.8,82,0.00,,,0.00,WUHU216HW,2013-12-05 13:10:00,
2013-12-05 07:15:00,24.3,19.4,29.87,SW,225,10.8,11.1,81,0.00,,,0.00,WUHU216HW,2013-12-05 13:15:00,
2013-12-05 07:20:00,24.1,19.2,29.87,SW,225,4.0,10.8,81,0.00,,,0.00,WUHU216HW,2013-12-05 13:20:00,
2013-12-05 07:25:00,24.1,19.4,29.88,SW,225,9.1,10.1,82,0.00,,,0.00,WUHU216HW,2013-12-05 13:25:00,
2013-12-05 07:30:00,23.8,19.1,29.88,SW,225,10.1,10.1,82,0.00,,,0.00,WUHU216HW,2013-12-05 13:30:00,
2013-12-05 07:36:00,23.6,18.1,29.89,SW,225,9.4,13.5,79,0.00,,,0.00,WUHU216HW,2013-12-05 13:36:00,
2013-12-05 07:41:00,23.4,18.2,29.90,SW,225,4.0,13.5,80,0.00,,,0.00,WUHU216HW,2013-12-05 13:41:00,
2013-12-05 07:46:00,23.4,18.2,29.90,SW,225,6.4,11.6,80,0.00,,,0.00,WUHU216HW,2013-12-05 13:46:00,
2013-12-05 07:51:00,23.4,17.9,29.91,SW,225,11.3,12.8,79,0.00,,,0.00,WUHU216HW,2013-12-05 13:51:00,
2013-12-05 07:56:00,23.2,18.0,29.91,SW,225,4.2,14.7,80,0.00,,,0.00,WUHU216HW,2013-12-05 13:56:00,
2013-12-05 08:02:00,23.4,18.5,29.91,SW,225,5.2,14.7,81,0.00,,,0.00,WUHU216HW,2013-12-05 14:02:00,
2013-12-05 08:07:00,23.4,18.5,29.91,SW,225,11.6,11.6,81,0.00,,,0.00,WUHU216HW,2013-12-05 14:07:00,
2013-12-05 08:12:00,23.4,18.5,29.92,SW,225,11.6,11.6,81,0.00,,,0.00,WUHU216HW,2013-12-05 14:12:00,
2013-12-05 08:17:00,23.4,18.2,29.92,SW,225,3.7,16.5,80,0.00,,,0.00,WUHU216HW,2013-12-05 14:17:00,
2013-12-05 08:22:00,23.4,18.2,29.93,SW,225,11.6,16.5,80,0.00,,,0.00,WUHU216HW,2013-12-05 14:22:00,
2013-12-05 08:27:00,23.2,18.0,29.93,SW,225,3.2,13.3,80,0.00,,,0.00,WUHU216HW,2013-12-05 14:27:00,
2013-12-05 08:32:00,23.0,17.2,29.93,SW,225,7.6,13.1,78,0.00,,,0.00,WUHU216HW,2013-12-05 14:32:00,
2013-12-05 08:39:00,22.9,17.4,29.94,SW,225,5.6,16.5,79,0.00,,,0.00,WUHU216HW,2013-12-05 14:39:00,
2013-12-05 08:45:00,22.9,17.6,29.94,SW,225,8.1,13.8,80,0.00,,,0.00,WUHU216HW,2013-12-05 14:45:00,
2013-12-05 08:50:00,22.9,17.6,29.94,SW,225,4.0,8.1,80,0.00,,,0.00,WUHU216HW,2013-12-05 14:50:00,
2013-12-05 08:56:00,22.9,17.6,29.95,SW,225,7.6,9.6,80,0.00,,,0.00,WUHU216HW,2013-12-05 14:56:00,
2013-12-05 09:01:00,23.0,17.2,29.95,SW,225,11.1,11.1,78,0.00,,,0.00,WUHU216HW,2013-12-05 15:01:00,
2013-12-05 09:06:00,23.0,17.2,29.95,SW,225,10.8,11.1,78,0.00,,,0.00,WUHU216HW,2013-12-05 15:06:00,
2013-12-05 09:11:00,23.0,17.6,29.95,SW,225,8.6,10.8,79,0.00,,,0.00,WUHU216HW,2013-12-05 15:11:00,
2013-12-05 09:16:00,22.9,17.4,29.96,SW,225,6.9,10.8,79,0.00,,,0.00,WUHU216HW,2013-12-05 15:16:00,
2013-12-05 09:22:00,22.9,17.0,29.96,SW,225,6.6,12.8,78,0.00,,,0.00,WUHU216HW,2013-12-05 15:22:00,
2013-12-05 09:27:00,22.7,16.8,29.96,SW,225,8.4,10.8,78,0.00,,,0.00,WUHU216HW,2013-12-05 15:27:00,
2013-12-05 09:32:00,22.7,17.2,29.96,SW,225,5.9,10.8,79,0.00,,,0.00,WUHU216HW,2013-12-05 15:32:00,
2013-12-05 09:37:00,22.7,16.8,29.97,SW,225,9.1,10.8,78,0.00,,,0.00,WUHU216HW,2013-12-05 15:37:00,
2013-12-05 09:42:00,22.7,16.6,29.98,SW,225,9.8,10.3,77,0.00,,,0.00,WUHU216HW,2013-12-05 15:42:00,
2013-12-05 09:48:00,22.7,16.6,29.98,SW,225,6.9,15.0,77,0.00,,,0.00,WUHU216HW,2013-12-05 15:48:00,
2013-12-05 09:53:00,22.7,16.2,29.98,SW,225,7.9,14.5,76,0.00,,,0.00,WUHU216HW,2013-12-05 15:53:00,
2013-12-05 09:59:00,22.3,16.2,29.98,SW,225,6.2,14.1,77,0.00,,,0.00,WUHU216HW,2013-12-05 15:59:00,
2013-12-05 10:04:00,22.7,16.6,29.98,SW,225,7.6,14.1,77,0.00,,,0.00,WUHU216HW,2013-12-05 16:04:00,
2013-12-05 10:09:00,23.2,17.1,29.99,SW,225,11.6,11.6,77,0.00,,,0.00,WUHU216HW,2013-12-05 16:09:00,
2013-12-05 10:14:00,23.4,17.3,29.99,SW,225,10.8,11.6,77,0.00,,,0.00,WUHU216HW,2013-12-05 16:14:00,
2013-12-05 10:19:00,23.4,17.3,29.99,SW,225,10.3,14.5,77,0.00,,,0.00,WUHU216HW,2013-12-05 16:19:00,
2013-12-05 10:24:00,23.4,16.9,29.99,SW,225,9.4,14.7,76,0.00,,,0.00,WUHU216HW,2013-12-05 16:24:00,
2013-12-05 10:30:00,23.2,17.1,29.99,SW,225,5.9,14.7,77,0.00,,,0.00,WUHU216HW,2013-12-05 16:30:00,
2013-12-05 10:35:00,23.2,17.1,29.99,SW,225,5.4,12.1,77,0.00,,,0.00,WUHU216HW,2013-12-05 16:35:00,
2013-12-05 10:40:00,23.4,17.3,30.00,SW,225,11.6,11.6,77,0.00,,,0.00,WUHU216HW,2013-12-05 16:40:00,
2013-12-05 10:45:00,23.6,16.8,30.00,SW,225,6.9,11.6,75,0.00,,,0.00,WUHU216HW,2013-12-05 16:45:00,
2013-12-05 10:51:00,23.9,17.5,30.00,SW,225,8.6,11.3,76,0.00,,,0.00,WUHU216HW,2013-12-05 16:51:00,
2013-12-05 10:56:00,23.9,17.1,30.00,SW,225,7.2,10.1,75,0.00,,,0.00,WUHU216HW,2013-12-05 16:56:00,
2013-12-05 11:02:00,23.9,17.1,30.00,SW,225,5.6,10.1,75,0.00,,,0.00,WUHU216HW,2013-12-05 17:02:00,
2013-12-05 11:08:00,24.1,16.4,30.00,SW,225,12.8,12.8,72,0.00,,,0.00,WUHU216HW,2013-12-05 17:08:00,
2013-12-05 11:13:00,24.1,16.7,30.00,SW,225,7.6,12.8,73,0.00,,,0.00,WUHU216HW,2013-12-05 17:13:00,
2013-12-05 11:18:00,24.1,17.0,30.00,SW,225,4.0,14.1,74,0.00,,,0.00,WUHU216HW,2013-12-05 17:18:00,
2013-12-05 11:23:00,24.3,17.2,30.00,SW,225,7.4,14.1,74,0.00,,,0.00,WUHU216HW,2013-12-05 17:23:00,
2013-12-05 11:28:00,24.8,17.4,30.00,SW,225,14.3,14.3,73,0.00,,,0.00,WUHU216HW,2013-12-05 17:28:00,
2013-12-05 11:33:00,25.0,17.6,30.00,SW,225,4.9,14.3,73,0.00,,,0.00,WUHU216HW,2013-12-05 17:33:00,
2013-12-05 11:39:00,24.8,17.0,30.00,SW,225,11.1,11.6,72,0.00,,,0.00,WUHU216HW,2013-12-05 17:39:00,
2013-12-05 11:45:00,24.8,16.8,30.00,SW,225,8.4,12.1,71,0.00,,,0.00,WUHU216HW,2013-12-05 17:45:00,
2013-12-05 11:50:00,25.0,17.6,30.00,SW,225,5.4,12.1,73,0.00,,,0.00,WUHU216HW,2013-12-05 17:50:00,
2013-12-05 11:56:00,25.4,18.2,30.01,SW,225,6.9,10.1,74,0.00,,,0.00,WUHU216HW,2013-12-05 17:56:00,
2013-12-05 12:01:00,25.4,17.6,30.00,SW,225,6.4,10.8,72,0.00,,,0.00,WUHU216HW,2013-12-05 18:01:00,
2013-12-05 12:06:00,25.4,17.6,30.00,SW,225,6.9,10.8,72,0.00,,,0.00,WUHU216HW,2013-12-05 18:06:00,
2013-12-05 12:11:00,25.2,17.4,30.01,SW,225,10.8,14.1,72,0.00,,,0.00,WUHU216HW,2013-12-05 18:11:00,
2013-12-05 12:16:00,25.0,17.2,30.01,SW,225,9.4,14.1,72,0.00,,,0.00,WUHU216HW,2013-12-05 18:16:00,
2013-12-05 12:21:00,25.0,17.6,30.01,SW,225,13.3,13.3,73,0.00,,,0.00,WUHU216HW,2013-12-05 18:21:00,
2013-12-05 12:26:00,24.8,17.0,30.01,SW,225,11.8,13.5,72,0.00,,,0.00,WUHU216HW,2013-12-05 18:26:00,
2013-12-05 12:31:00,25.2,17.4,30.02,SW,225,15.7,15.7,72,0.00,,,0.00,WUHU216HW,2013-12-05 18:31:00,
2013-12-05 12:36:00,24.8,16.4,30.02,SW,225,11.3,15.7,70,0.00,,,0.00,WUHU216HW,2013-12-05 18:36:00,
2013-12-05 12:41:00,24.8,16.0,30.02,SW,225,7.2,15.3,69,0.00,,,0.00,WUHU216HW,2013-12-05 18:41:00,
2013-12-05 12:46:00,24.8,16.8,30.01,SW,225,10.1,15.3,71,0.00,,,0.00,WUHU216HW,2013-12-05 18:46:00,
2013-12-05 12:51:00,24.8,16.4,30.02,SW,225,15.7,15.7,70,0.00,,,0.00,WUHU216HW,2013-12-05 18:51:00,
2013-12-05 12:59:00,24.8,16.4,30.02,SW,225,13.5,15.7,70,0.00,,,0.00,WUHU216HW,2013-12-05 18:59:00,
2013-12-05 13:04:00,24.7,16.2,30.02,SW,225,6.6,13.5,70,0.00,,,0.00,WUHU216HW,2013-12-05 19:04:00,
2013-12-05 13:09:00,24.8,17.0,30.02,SW,225,10.1,10.8,72,0.00,,,0.00,WUHU216HW,2013-12-05 19:09:00,
2013-12-05 13:14:00,25.2,17.4,30.03,SW,225,5.4,10.8,72,0.00,,,0.00,WUHU216HW,2013-12-05 19:14:00,
2013-12-05 13:20:00,25.2,17.4,30.03,SW,225,10.8,10.8,72,0.00,,,0.00,WUHU216HW,2013-12-05 19:20:00,
2013-12-05 13:26:00,25.2,17.4,30.04,SW,225,12.8,12.8,72,0.00,,,0.00,WUHU216HW,2013-12-05 19:26:00,
2013-12-05 13:31:00,25.2,17.1,30.04,SW,225,10.1,12.8,71,0.00,,,0.00,WUHU216HW,2013-12-05 19:31:00,
2013-12-05 13:37:00,25.2,17.4,30.04,SW,225,9.6,10.8,72,0.00,,,0.00,WUHU216HW,2013-12-05 19:37:00,
2013-12-05 13:42:00,25.0,16.9,30.04,SW,225,4.9,10.1,71,0.00,,,0.00,WUHU216HW,2013-12-05 19:42:00,
2013-12-05 13:47:00,25.0,16.9,30.04,SW,225,8.4,10.1,71,0.00,,,0.00,WUHU216HW,2013-12-05 19:47:00,
2013-12-05 13:53:00,24.8,16.8,30.04,SW,225,7.6,9.6,71,0.00,,,0.00,WUHU216HW,2013-12-05 19:53:00,
2013-12-05 13:58:00,24.8,16.4,30.04,SW,225,4.7,10.3,70,0.00,,,0.00,WUHU216HW,2013-12-05 19:58:00,
2013-12-05 14:03:00,24.7,16.6,30.04,SW,225,9.4,10.3,71,0.00,,,0.00,WUHU216HW,2013-12-05 20:03:00,
2013-12-05 14:08:00,24.5,16.4,30.04,SW,225,7.9,9.6,71,0.00,,,0.00,WUHU216HW,2013-12-05 20:08:00,
2013-12-05 14:13:00,24.5,15.8,30.04,SW,225,6.9,9.6,69,0.00,,,0.00,WUHU216HW,2013-12-05 20:13:00,
2013-12-05 14:18:00,24.5,16.0,30.04,SW,225,5.6,10.8,70,0.00,,,0.00,WUHU216HW,2013-12-05 20:18:00,
2013-12-05 14:24:00,24.3,15.9,30.04,SW,225,4.4,11.6,70,0.00,,,0.00,WUHU216HW,2013-12-05 20:24:00,
2013-12-05 14:29:00,24.3,16.2,30.04,SW,225,8.1,11.6,71,0.00,,,0.00,WUHU216HW,2013-12-05 20:29:00,
2013-12-05 14:36:00,24.1,15.8,30.04,SW,225,4.0,14.1,70,0.00,,,0.00,WUHU216HW,2013-12-05 20:36:00,
2013-12-05 14:41:00,24.3,16.2,30.05,SW,225,10.3,14.1,71,0.00,,,0.00,WUHU216HW,2013-12-05 20:41:00,
2013-12-05 14:46:00,24.1,16.0,30.05,SW,225,8.4,10.3,71,0.00,,,0.00,WUHU216HW,2013-12-05 20:46:00,
2013-12-05 14:52:00,24.1,15.4,30.06,SW,225,10.6,13.1,69,0.00,,,0.00,WUHU216HW,2013-12-05 20:52:00,
2013-12-05 14:57:00,24.1,16.0,30.07,SW,225,7.4,13.1,71,0.00,,,0.00,WUHU216HW,2013-12-05 20:57:00,
2013-12-05 15:03:00,24.1,15.8,30.07,SW,225,4.2,9.1,70,0.00,,,0.00,WUHU216HW,2013-12-05 21:03:00,
2013-12-05 15:10:00,23.9,15.9,30.07,SW,225,5.9,10.8,71,0.00,,,0.00,WUHU216HW,2013-12-05 21:10:00,
2013-12-05 15:15:00,23.8,15.8,30.07,SW,225,5.9,10.8,71,0.00,,,0.00,WUHU216HW,2013-12-05 21:15:00,
2013-12-05 15:21:00,23.4,15.7,30.07,SW,225,3.0,7.2,72,0.00,,,0.00,WUHU216HW,2013-12-05 21:21:00,
2013-12-05 15:26:00,23.4,15.7,30.07,SW,225,5.2,15.5,72,0.00,,,0.00,WUHU216HW,2013-12-05 21:26:00,
2013-12-05 15:31:00,23.4,15.4,30.07,SW,225,7.6,15.5,71,0.00,,,0.00,WUHU216HW,2013-12-05 21:31:00,
2013-12-05 15:36:00,23.0,15.4,30.06,SW,225,4.9,9.6,72,0.00,,,0.00,WUHU216HW,2013-12-05 21:36:00,
2013-12-05 15:41:00,22.9,15.2,30.07,SW,225,4.4,11.1,72,0.00,,,0.00,WUHU216HW,2013-12-05 21:41:00,
2013-12-05 15:46:00,22.9,15.2,30.07,SW,225,4.4,11.1,72,0.00,,,0.00,WUHU216HW,2013-12-05 21:46:00,
2013-12-05 15:52:00,22.7,14.7,30.08,SW,225,8.1,13.3,71,0.00,,,0.00,WUHU216HW,2013-12-05 21:52:00,
2013-12-05 15:57:00,22.5,14.5,30.08,SW,225,3.4,10.8,71,0.00,,,0.00,WUHU216HW,2013-12-05 21:57:00,
2013-12-05 16:02:00,22.3,14.3,30.08,SW,225,6.2,13.3,71,0.00,,,0.00,WUHU216HW,2013-12-05 22:02:00,
2013-12-05 16:08:00,22.1,14.1,30.08,SW,225,8.9,13.3,71,0.00,,,0.00,WUHU216HW,2013-12-05 22:08:00,
2013-12-05 16:14:00,22.0,13.7,30.08,SW,225,8.1,12.8,70,0.00,,,0.00,WUHU216HW,2013-12-05 22:14:00,
2013-12-05 16:19:00,21.8,14.1,30.08,SW,225,5.9,12.8,72,0.00,,,0.00,WUHU216HW,2013-12-05 22:19:00,
2013-12-05 16:24:00,21.6,14.0,30.08,SW,225,7.9,9.8,72,0.00,,,0.00,WUHU216HW,2013-12-05 22:24:00,
2013-12-05 16:29:00,21.2,13.6,30.08,SW,225,5.9,14.5,72,0.00,,,0.00,WUHU216HW,2013-12-05 22:29:00,
2013-12-05 16:34:00,21.2,13.9,30.09,SW,225,7.2,14.5,73,0.00,,,0.00,WUHU216HW,2013-12-05 22:34:00,
2013-12-05 16:39:00,21.1,13.7,30.10,SW,225,6.9,7.2,73,0.00,,,0.00,WUHU216HW,2013-12-05 22:39:00,
2013-12-05 16:44:00,21.1,14.1,30.10,SW,225,3.7,6.9,74,0.00,,,0.00,WUHU216HW,2013-12-05 22:44:00,
2013-12-05 16:49:00,20.9,13.9,30.10,SW,225,10.8,10.8,74,0.00,,,0.00,WUHU216HW,2013-12-05 22:49:00,
2013-12-05 16:54:00,20.9,13.9,30.11,SW,225,9.4,10.8,74,0.00,,,0.00,WUHU216HW,2013-12-05 22:54:00,
2013-12-05 17:00:00,20.9,13.9,30.11,SW,225,5.2,10.3,74,0.00,,,0.00,WUHU216HW,2013-12-05 23:00:00,
2013-12-05 17:05:00,20.7,13.7,30.12,SW,225,4.0,8.6,74,0.00,,,0.00,WUHU216HW,2013-12-05 23:05:00,
2013-12-05 17:10:00,21.1,14.6,30.12,SW,225,4.9,7.2,76,0.00,,,0.00,WUHU216HW,2013-12-05 23:10:00,
2013-12-05 17:15:00,21.2,14.8,30.13,SW,225,5.6,7.9,76,0.00,,,0.00,WUHU216HW,2013-12-05 23:15:00,
2013-12-05 17:20:00,21.2,14.2,30.13,SW,225,4.0,10.8,74,0.00,,,0.00,WUHU216HW,2013-12-05 23:20:00,
2013-12-05 17:26:00,21.1,14.1,30.14,SW,225,4.2,10.8,74,0.00,,,0.00,WUHU216HW,2013-12-05 23:26:00,
2013-12-05 17:32:00,20.9,14.1,30.14,SW,225,8.4,8.6,75,0.00,,,0.00,WUHU216HW,2013-12-05 23:32:00,
2013-12-05 17:37:00,20.9,14.1,30.14,SW,225,6.9,8.6,75,0.00,,,0.00,WUHU216HW,2013-12-05 23:37:00,
2013-12-05 17:42:00,20.7,14.0,30.15,SW,225,4.4,7.6,75,0.00,,,0.00,WUHU216HW,2013-12-05 23:42:00,
2013-12-05 17:47:00,20.9,14.4,30.15,SW,225,6.9,8.1,76,0.00,,,0.00,WUHU216HW,2013-12-05 23:47:00,
2013-12-05 17:52:00,21.1,15.6,30.16,SW,225,3.7,10.1,79,0.00,,,0.00,WUHU216HW,2013-12-05 23:52:00,
2013-12-05 17:57:00,21.1,15.2,30.16,SW,225,8.1,10.1,78,0.00,,,0.00,WUHU216HW,2013-12-05 23:57:00,
2013-12-05 18:03:00,20.9,14.4,30.16,SW,225,7.9,8.4,76,0.00,,,0.00,WUHU216HW,2013-12-06 00:03:00,
2013-12-05 18:08:00,20.9,14.4,30.17,SW,225,7.2,8.4,76,0.00,,,0.00,WUHU216HW,2013-12-06 00:08:00,
2013-12-05 18:13:00,21.1,15.6,30.18,SW,225,7.4,7.4,79,0.00,,,0.00,WUHU216HW,2013-12-06 00:13:00,
2013-12-05 18:18:00,21.2,16.0,30.18,SW,225,10.3,10.3,80,0.00,,,0.00,WUHU216HW,2013-12-06 00:18:00,
2013-12-05 18:23:00,21.2,15.1,30.18,SW,225,8.6,10.3,77,0.00,,,0.00,WUHU216HW,2013-12-06 00:23:00,
2013-12-05 18:28:00,21.1,15.0,30.18,SW,225,8.1,9.6,77,0.00,,,0.00,WUHU216HW,2013-12-06 00:28:00,
2013-12-05 18:33:00,20.9,14.8,30.18,SW,225,6.9,9.4,77,0.00,,,0.00,WUHU216HW,2013-12-06 00:33:00,
2013-12-05 18:38:00,20.9,14.8,30.19,SW,225,7.9,9.4,77,0.00,,,0.00,WUHU216HW,2013-12-06 00:38:00,
2013-12-05 18:43:00,20.5,13.8,30.19,SW,225,5.4,9.4,75,0.00,,,0.00,WUHU216HW,2013-12-06 00:43:00,
2013-12-05 18:49:00,20.5,13.8,30.19,SW,225,5.4,6.6,75,0.00,,,0.00,WUHU216HW,2013-12-06 00:49:00,
2013-12-05 18:54:00,20.2,13.4,30.20,SW,225,4.4,10.3,75,0.00,,,0.00,WUHU216HW,2013-12-06 00:54:00,
2013-12-05 18:59:00,20.2,13.7,30.20,SW,225,4.9,8.6,76,0.00,,,0.00,WUHU216HW,2013-12-06 00:59:00,
2013-12-05 19:04:00,20.0,13.5,30.20,SW,225,2.4,7.4,76,0.00,,,0.00,WUHU216HW,2013-12-06 01:04:00,
2013-12-05 19:10:00,20.0,13.5,30.20,SW,225,4.9,8.4,76,0.00,,,0.00,WUHU216HW,2013-12-06 01:10:00,
2013-12-05 19:16:00,20.0,13.2,30.20,SW,225,11.6,11.6,75,0.00,,,0.00,WUHU216HW,2013-12-06 01:16:00,
2013-12-05 19:22:00,19.8,13.3,30.20,SW,225,7.2,11.6,76,0.00,,,0.00,WUHU216HW,2013-12-06 01:22:00,
2013-12-05 19:28:00,19.8,13.1,30.20,SW,225,6.9,13.3,75,0.00,,,0.00,WUHU216HW,2013-12-06 01:28:00,
2013-12-05 19:33:00,19.8,13.3,30.20,SW,225,7.2,12.5,76,0.00,,,0.00,WUHU216HW,2013-12-06 01:33:00,
2013-12-05 19:38:00,19.6,12.9,30.20,SW,225,11.1,11.1,75,0.00,,,0.00,WUHU216HW,2013-12-06 01:38:00,
2013-12-05 19:44:00,19.6,12.9,30.20,SW,225,4.4,11.1,75,0.00,,,0.00,WUHU216HW,2013-12-06 01:44:00,
2013-12-05 19:49:00,19.4,12.7,30.20,SW,225,10.8,10.8,75,0.00,,,0.00,WUHU216HW,2013-12-06 01:49:00,
2013-12-05 19:55:00,19.4,12.7,30.20,SW,225,10.3,10.8,75,0.00,,,0.00,WUHU216HW,2013-12-06 01:55:00,
2013-12-05 20:00:00,19.3,12.5,30.20,SW,225,4.9,12.5,75,0.00,,,0.00,WUHU216HW,2013-12-06 02:00:00,
2013-12-05 20:05:00,19.3,12.5,30.20,SW,225,4.0,8.9,75,0.00,,,0.00,WUHU216HW,2013-12-06 02:05:00,
2013-12-05 20:10:00,19.1,12.3,30.21,SW,225,9.4,9.4,75,0.00,,,0.00,WUHU216HW,2013-12-06 02:10:00,
2013-12-05 20:15:00,19.1,12.3,30.21,SW,225,10.3,10.6,75,0.00,,,0.00,WUHU216HW,2013-12-06 02:15:00,
2013-12-05 20:23:00,17.0,10.5,30.21,SW,225,4.7,12.3,75,0.00,,,0.00,WUHU216HW,2013-12-06 02:23:00,
2013-12-05 20:28:00,17.0,10.5,30.21,SW,225,9.4,12.3,75,0.00,,,0.00,WUHU216HW,2013-12-06 02:28:00,
2013-12-05 20:34:00,16.6,10.1,30.21,SW,225,6.9,10.6,75,0.00,,,0.00,WUHU216HW,2013-12-06 02:34:00,
2013-12-05 20:39:00,16.6,10.1,30.21,SW,225,9.4,13.5,75,0.00,,,0.00,WUHU216HW,2013-12-06 02:39:00,
2013-12-05 20:45:00,16.6,10.0,30.21,SW,225,13.3,13.5,75,0.00,,,0.00,WUHU216HW,2013-12-06 02:45:00,
2013-12-05 20:51:00,16.6,10.3,30.22,SW,225,6.2,13.3,76,0.00,,,0.00,WUHU216HW,2013-12-06 02:51:00,
2013-12-05 20:56:00,16.6,10.0,30.22,SW,225,10.6,11.8,75,0.00,,,0.00,WUHU216HW,2013-12-06 02:56:00,
2013-12-05 21:01:00,16.4,9.9,30.22,SW,225,12.5,12.5,75,0.00,,,0.00,WUHU216HW,2013-12-06 03:01:00,
2013-12-05 21:07:00,16.2,10.0,30.22,SW,225,7.9,13.8,76,0.00,,,0.00,WUHU216HW,2013-12-06 03:07:00,
2013-12-05 21:12:00,16.0,9.5,30.22,SW,225,9.4,13.8,75,0.00,,,0.00,WUHU216HW,2013-12-06 03:12:00,
2013-12-05 21:17:00,15.8,9.6,30.22,SW,225,10.8,11.6,76,0.00,,,0.00,WUHU216HW,2013-12-06 03:17:00,
2013-12-05 21:22:00,15.8,9.6,30.22,SW,225,8.4,11.3,76,0.00,,,0.00,WUHU216HW,2013-12-06 03:22:00,
2013-12-05 21:28:00,15.8,9.5,30.22,SW,225,5.9,12.5,76,0.00,,,0.00,WUHU216HW,2013-12-06 03:28:00,
2013-12-05 21:33:00,15.8,9.5,30.22,SW,225,6.4,12.5,76,0.00,,,0.00,WUHU216HW,2013-12-06 03:33:00,
2013-12-05 21:38:00,15.6,9.7,30.22,SW,225,6.6,9.1,77,0.00,,,0.00,WUHU216HW,2013-12-06 03:38:00,
2013-12-05 21:43:00,15.6,9.7,30.23,SW,225,7.2,10.8,77,0.00,,,0.00,WUHU216HW,2013-12-06 03:43:00,
2013-12-05 21:48:00,15.4,9.5,30.23,SW,225,8.1,10.8,77,0.00,,,0.00,WUHU216HW,2013-12-06 03:48:00,
2013-12-05 21:54:00,15.2,9.6,30.23,SW,225,5.2,10.1,78,0.00,,,0.00,WUHU216HW,2013-12-06 03:54:00,
2013-12-05 21:59:00,15.2,9.6,30.22,SW,225,2.8,7.6,78,0.00,,,0.00,WUHU216HW,2013-12-06 03:59:00,
2013-12-05 22:04:00,15.2,9.6,30.23,SW,225,6.6,7.6,78,0.00,,,0.00,WUHU216HW,2013-12-06 04:04:00,
2013-12-05 22:10:00,15.2,9.6,30.23,SW,225,4.7,6.6,78,0.00,,,0.00,WUHU216HW,2013-12-06 04:10:00,
2013-12-05 22:15:00,15.2,9.9,30.22,SW,225,4.2,8.6,79,0.00,,,0.00,WUHU216HW,2013-12-06 04:15:00,
2013-12-05 22:20:00,15.0,9.4,30.22,SW,225,9.4,9.4,78,0.00,,,0.00,WUHU216HW,2013-12-06 04:20:00,
2013-12-05 22:27:00,15.2,9.6,30.23,SW,225,3.0,9.4,78,0.00,,,0.00,WUHU216HW,2013-12-06 04:27:00,
2013-12-05 22:33:00,15.2,9.9,30.24,SW,225,6.4,6.9,79,0.00,,,0.00,WUHU216HW,2013-12-06 04:33:00,
2013-12-05 22:38:00,15.0,9.4,30.24,SW,225,7.6,7.6,78,0.00,,,0.00,WUHU216HW,2013-12-06 04:38:00,
2013-12-05 22:45:00,15.0,9.4,30.24,SW,225,6.4,10.1,78,0.00,,,0.00,WUHU216HW,2013-12-06 04:45:00,
2013-12-05 22:51:00,14.9,9.3,30.25,SW,225,10.6,10.6,78,0.00,,,0.00,WUHU216HW,2013-12-06 04:51:00,
2013-12-05 22:56:00,14.9,9.3,30.25,SW,225,4.4,10.6,78,0.00,,,0.00,WUHU216HW,2013-12-06 04:56:00,
2013-12-05 23:01:00,14.8,9.2,30.24,SW,225,3.4,9.4,78,0.00,,,0.00,WUHU216HW,2013-12-06 05:01:00,
2013-12-05 23:06:00,14.6,9.0,30.24,SW,225,8.6,9.4,78,0.00,,,0.00,WUHU216HW,2013-12-06 05:06:00,
2013-12-05 23:13:00,14.6,9.0,30.25,SW,225,9.4,10.1,78,0.00,,,0.00,WUHU216HW,2013-12-06 05:13:00,
2013-12-05 23:18:00,14.6,9.0,30.26,SW,225,6.9,10.1,78,0.00,,,0.00,WUHU216HW,2013-12-06 05:18:00,
2013-12-05 23:23:00,14.6,9.0,30.26,SW,225,9.1,9.6,78,0.00,,,0.00,WUHU216HW,2013-12-06 05:23:00,
2013-12-05 23:29:00,14.6,9.0,30.26,SW,225,10.1,10.1,78,0.00,,,0.00,WUHU216HW,2013-12-06 05:29:00,
2013-12-05 23:34:00,14.4,8.8,30.25,SW,225,4.4,11.1,78,0.00,,,0.00,WUHU216HW,2013-12-06 05:34:00,
2013-12-05 23:39:00,14.2,8.6,30.26,SW,225,6.9,11.1,78,0.00,,,0.00,WUHU216HW,2013-12-06 05:39:00,
2013-12-05 23:44:00,14.2,8.6,30.26,SW,225,6.4,6.9,78,0.00,,,0.00,WUHU216HW,2013-12-06 05:44:00,
2013-12-05 23:49:00,14.2,8.6,30.27,SW,225,6.2,10.8,78,0.00,,,0.00,WUHU216HW,2013-12-06 05:49:00,
2013-12-05 23:54:00,14.1,8.5,30.27,SW,225,2.4,10.8,78,0.00,,,0.00,WUHU216HW,2013-12-06 05:54:00,
2013-12-05 23:59:00,14.1,8.5,30.27,SW,225,5.9,7.6,78,0.00,,,0.00,WUHU216HW,2013-12-06 05:59:00,